This demonstration page uses our WeatherBlox Daily Observations layout. Learn more.

Left ArrowRight Arrow

38.80484, -77.04692

Hourly Observations for October 7, 2019

Temp ( °F °C ) Dew Point ( °F °C ) Humidity (%) Winds ( mph kmh ) Pressure ( in mb ) Visibility ( mi km ) Precip ( " mm )
12:52 am 00:52 Cloudy 70 21.1 64 17.8 82 82 S 8 13 30.19 1023 10 16 0.00 0.00
1:52 am 01:52 Cloudy 72 22.2 61 16.1 68 68 S 14 22 30.19 1022 10 16 0.00 0.00
2:52 am 02:52 Cloudy 72 22.2 61 16.1 68 68 S 13 20 30.17 1022 10 16 0.00 0.00
3:52 am 03:52 Cloudy 71 21.7 60 15.6 68 68 S 14 22 30.16 1021 10 16 0.00 0.00
4:52 am 04:52 Cloudy 71 21.7 61 16.1 71 71 SSW 13 20 30.16 1021 10 16 0.00 0.00
5:52 am 05:52 Cloudy 70 21.1 61 16.1 73 73 S 12 19 30.16 1021 10 16 0.00 0.00
6:52 am 06:52 Cloudy 70 21.1 61 16.1 73 73 S 10 17 30.17 1022 10 16 0.00 0.00
7:52 am 07:52 Cloudy 69 20.6 62 16.7 78 78 SSW 12 19 30.18 1022 10 16 0.00 0.00
8:52 am 08:52 Cloudy 70 21.1 62 16.7 76 76 S 8 13 30.18 1022 10 16 0.00 0.00
9:52 am 09:52 Partly Cloudy 73 22.8 63 17.2 71 71 S 12 19 30.17 1022 10 16 0.00 0.00
10:52 am 10:52 Partly Cloudy 76 24.4 64 17.8 67 67 S 12 19 30.16 1021 10 16 0.00 0.00
11:52 am 11:52 Mostly Cloudy 79 26.1 62 16.7 56 56 S 14 22 30.14 1021 10 16 0.00 0.00
12:52 pm 12:52 Mostly Cloudy 80 26.7 61 16.1 52 52 SSW 17 28 30.12 1020 10 16 0.00 0.00
1:52 pm 13:52 Cloudy 84 28.9 60 15.6 44 44 S 16 26 30.09 1019 10 16 0.00 0.00
2:52 pm 14:52 Mostly Cloudy 80 26.7 60 15.6 51 51 SSW 12 19 30.07 1018 10 16 0.00 0.00
3:52 pm 15:52 Mostly Cloudy 82 27.8 60 15.6 47 47 SW 12 19 30.06 1018 10 16 0.00 0.00
4:52 pm 16:52 Mostly Cloudy 81 27.2 61 16.1 51 51 S 9 15 30.04 1017 10 16 0.00 0.00
5:52 pm 17:52 Mostly Cloudy 79 26.1 61 16.1 54 54 S 5 7 30.03 1017 10 16 0.00 0.00
7:52 pm 19:52 Cloudy 79 26.1 60 15.6 52 52 WNW 6 9 30.06 1018 10 16 0.00 0.00
8:52 pm 20:52 Cloudy 70 21.1 63 17.2 79 79 NNW 17 28 30.10 1019 10 16 0.00 0.00
9:04 pm 21:04 Cloudy with Light Rain 67 19.4 61 16.1 81 81 NNW 26 43 30.13 1020 10 16 0.00 0.00
9:47 pm 21:47 Cloudy with Light Rain 64 18 57 14 78 78 N 17 28 30.16 1021 8 13 0.02 0.51
9:52 pm 21:52 Cloudy with Light Rain 63 17.2 58 14.4 84 84 N 21 33 30.16 1021 10 16 0.02 0.51
10:52 pm 22:52 Cloudy 64 17.8 58 14.4 81 81 N 15 24 30.16 1022 10 16 0.00 0.00
11:52 pm 23:52 Cloudy 64 17.8 57 13.9 78 78 N 20 31 30.16 1022 10 16 0.00 0.00

Powered by AerisWeather